Dewpoint
57 57 57 56 56 55 55 54 54 53 51 49 47 49 46 45 45 47 48 49 45 40 39 46 40 32 29 30 28 28 27 29 37 36 41 36 40 35 33 31 31 27 25 27 25 24 22 12 8 9 8 7 8 9 9 9 6 5 3 5 3 44 8 12 19 32 29 19 18 34 29 27 28 29 27 22 24 26 30 34 35 37 41 38 39 37 39
57 57 57 56 56 55 55 55 54 52 51 49 49 47 46 46 47 48 51 50 47 40 37 36 36 35 42 43 43 44 43 42 41 40 40 43 34 38 33 33 34 33 32 26 22 26 25 20 16 10 9 8 9 8 9 9 6 3 5 4 25 14 23 11 16 15 27 27 37 33 31 32 31 29 28 24 29 34 35 38 41 37 41 41 37 31 36
57 57 57 56 56 55 55 55 54 52 51 51 49 46 47 47 49 49 50 51 49 39 40 43 41 43 44 44 44 42 42 44 43 42 40 40 38 38 37 36 36 34 35 32 24 24 21 25 19 10 13 9 16 10 8 8 5 6 19 49 12 8 25 18 7 12 10 25 29 31 27 27 33 35 30 28 33 33 32 32 39 32 40 41 37 37 43
58 57 57 56 56 55 55 55 54 52 51 50 49 49 50 48 46 46 49 49 49 49 50 48 46 45 46 46 45 42 43 44 44 42 41 41 41 40 38 37 38 37 38 35 25 21 25 21 23 22 13 11 15 9 7 7 21 40 55 47 20 25 31 24 22 13 18 35 41 41 41 32 27 28 30 28 32 37 38 40 43 35 39 39 43 42 46
58 58 57 56 56 55 55 54 53 52 51 50 49 50 49 50 44 46 46 46 49 48 49 49 48 45 48 45 45 43 43 44 44 43 41 41 42 39 38 39 39 39 38 37 33 29 25 25 29 20 16 14 14 13 9 23 56 63 53 40 23 30 20 26 37 27 26 38 42 38 33 27 32 29 28 27 29 32 34 33 32 42 37 35 45 49 45
58 58 58 57 57 56 55 54 52 51 50 51 51 51 50 44 48 49 49 44 42 46 47 49 49 50 50 48 47 44 44 45 44 44 43 44 43 38 40 42 42 41 39 38 33 32 30 27 22 29 29 27 23 6 24 42 61 44 27 37 25 25 19 26 33 38 31 39 32 29 29 29 30 30 29 28 30 35 36 42 41 41 35 34 43 48 44
58 59 59 58 58 57 57 55 52 51 49 49 51 46 47 50 50 48 50 48 48 47 48 49 50 49 50 50 49 46 46 45 45 47 44 44 43 41 42 42 42 42 41 40 37 36 35 36 36 33 29 29 31 23 22 23 33 15 20 19 31 18 26 30 30 33 30 29 29 30 28 29 29 29 28 27 32 33 35 41 42 39 44 42 47 48 43
58 59 59 59 58 58 57 55 53 51 49 49 47 46 46 47 48 49 51 50 49 48 49 50 49 47 51 46 49 48 46 46 46 45 48 44 42 43 43 43 43 42 42 42 37 38 43 40 38 37 31 25 34 32 28 21 19 14 17 19 24 13 22 38 29 30 32 29 29 27 27 28 29 33 33 32 33 33 37 40 43 46 44 45 47 46 44
59 59 59 58 58 58 57 55 54 52 50 49 48 46 46 46 49 50 50 48 48 51 50 50 50 47 48 45 49 48 46 49 47 47 47 50 45 45 44 44 44 43 43 42 40 41 41 41 40 40 36 25 29 27 28 24 26 23 20 21 29 23 28 35 37 31 32 36 28 28 29 30 33 33 33 32 31 33 35 41 38 43 45 47 46 44 44
59 59 59 58 58 57 57 55 53 52 50 50 49 46 48 48 50 50 50 47 54 49 49 49 47 46 50 51 50 49 46 44 46 49 51 48 48 46 45 44 44 43 43 42 42 43 43 42 42 42 38 26 27 26 25 25 28 28 26 28 21 27 28 28 34 28 32 35 28 27 28 29 30 34 34 36 33 34 35 37 44 46 44 44 43 41 45
59 59 59 58 58 57 56 56 54 53 50 48 48 48 49 48 48 48 51 47 49 49 49 51 48 52 49 47 46 44 47 50 47 47 49 49 47 46 45 45 45 45 47 44 45 46 45 45 44 41 34 31 27 27 27 25 30 27 27 31 36 35 33 32 39 32 32 31 27 32 29 27 28 37 42 44 33 35 36 37 40 43 42 43 44 44 49
57 59 59 58 58 57 57 56 55 54 52 50 49 49 50 50 50 50 49 46 47 50 49 50 51 50 50 50 49 45 45 47 52 49 48 50 49 47 47 47 46 45 46 47 48 46 44 42 38 36 36 36 32 32 31 27 25 39 30 33 36 40 36 31 39 31 28 36 34 31 27 30 41 49 44 44 35 39 40 42 42 42 46 47 48 48 48
55 58 58 58 58 58 57 56 54 54 53 51 50 48 50 50 50 50 50 48 47 48 47 49 50 50 50 47 45 46 48 52 49 56 51 52 49 47 46 48 47 51 48 48 48 45 42 41 38 45 37 38 37 33 32 29 30 30 30 34 33 31 30 37 35 37 33 34 35 28 32 41 47 44 44 49 38 39 40 41 46 46 45 46 46 46 48
54 55 57 58 58 58 57 56 56 55 53 51 50 49 49 51 50 51 50 47 47 49 50 48 50 48 46 45 43 48 51 51 50 53 53 53 52 46 46 50 47 49 49 48 47 45 41 41 38 39 35 39 38 36 34 33 33 35 34 34 34 36 39 36 34 37 28 32 37 34 43 39 40 45 41 40 39 40 38 39 43 47 48 45 45 48 52
53 54 54 55 56 57 57 57 56 55 54 51 50 49 49 50 52 52 54 50 48 49 49 47 49 46 45 43 44 44 46 51 48 47 51 52 52 49 50 50 50 48 46 45 48 46 44 42 38 36 40 36 33 36 37 34 36 37 38 37 38 37 32 36 32 34 43 37 35 36 32 33 39 47 49 48 45 44 43 42 43 47 47 48 47 50 49
53 53 53 53 53 53 55 56 56 55 54 52 50 49 48 51 53 54 54 51 48 46 50 50 48 46 44 43 43 43 46 47 49 51 51 54 55 50 51 50 48 47 47 45 49 46 44 38 36 37 34 36 38 39 40 37 36 37 42 39 38 39 41 39 35 38 37 36 35 33 30 33 43 45 49 49 45 41 42 41 40 47 51 50 49 48 48
52 52 52 53 53 53 53 55 55 55 54 52 51 49 48 51 51 53 52 52 50 48 49 50 48 46 45 43 42 43 42 41 44 44 44 48 51 48 55 50 48 51 52 47 50 45 43 43 43 39 41 43 41 37 45 43 40 40 42 42 40 40 43 37 35 38 42 37 33 31 42 40 45 51 49 45 43 40 37 35 38 48 52 47 50 50 50
52 51 52 52 52 52 52 53 54 54 53 51 51 49 48 49 53 52 53 52 49 50 51 49 49 47 46 45 42 42 42 44 44 51 49 51 52 49 52 51 48 50 56 48 52 48 47 42 39 37 37 43 44 45 37 41 42 41 41 44 41 44 44 41 36 36 42 43 37 41 42 49 53 48 45 47 45 40 34 33 38 49 51 50 52 51 53
51 51 51 51 52 52 52 52 53 53 53 52 51 49 48 51 49 51 52 52 50 49 51 50 50 49 48 47 44 43 42 43 44 45 46 46 49 52 55 58 48 54 51 55 48 45 41 42 48 43 39 43 47 42 45 41 40 45 45 40 40 43 44 45 46 40 37 39 40 39 43 48 48 49 48 52 40 35 38 44 50 54 51 53 52 52 53
50 50 51 51 51 51 51 51 52 52 53 53 51 48 48 48 49 52 50 49 50 49 50 49 49 48 47 46 44 42 41 43 45 46 45 42 48 47 48 48 52 52 54 51 48 46 43 39 40 45 42 44 46 49 43 45 46 42 42 44 40 40 37 37 40 43 42 43 40 37 32 44 51 51 47 53 44 43 49 52 53 54 52 51 52 51 50
49 49 50 50 50 51 51 51 51 51 52 53 52 48 47 50 51 50 50 50 49 47 47 49 48 47 47 47 46 45 45 44 44 43 46 45 46 46 43 47 52 50 51 45 43 42 48 42 43 43 45 46 48 45 41 43 42 45 46 43 44 47 37 39 43 45 39 40 39 35 41 45 49 51 44 48 51 50 54 51 51 54 53 52 52 52 50
48 49 49 50 51 51 51 51 51 50 51 53 53 50 48 49 50 49 49 50 49 49 49 50 50 50 50 50 50 50 49 48 48 47 45 44 46 44 46 49 47 48 49 48 49 47 49 50 46 42 39 42 48 44 46 40 39 43 49 45 39 48 44 46 41 47 44 43 46 49 53 53 53 55 52 54 54 54 52 51 51 51 51 52 50 50 50
50 49 50 51 52 52 51 51 51 50 50 52 53 49 48 48 48 50 49 48 51 53 53 52 52 52 52 52 53 52 52 52 51 50 48 46 44 48 46 46 46 49 52 53 47 47 49 47 42 47 46 46 46 46 45 45 42 46 42 45 44 51 52 52 50 47 52 51 52 53 51 51 53 50 53 52 51 52 52 51 51 52 51 50 50 51 50
49 50 52 53 53 53 52 51 51 51 50 51 53 51 49 48 48 49 49 51 49 49 49 50 50 49 49 48 49 50 50 51 52 51 51 48 45 44 48 49 46 48 52 52 52 45 44 44 46 49 44 46 49 43 39 39 43 47 45 43 49 52 52 50 46 50 42 40 48 51 48 51 53 53 54 54 54 54 52 52 52 53 52 52 52 51 49
51 52 53 53 52 52 53 52 51 51 51 52 53 53 52 49 49 50 48 46 46 47 45 47 48 48 49 50 50 49 49 50 49 48 49 49 46 42 40 43 46 44 45 46 52 47 50 43 45 44 42 48 45 41 48 41 39 47 40 44 45 43 49 48 52 47 43 44 47 52 55 53 53 52 52 52 52 52 51 51 50 50 50 50 50 49 48
53 53 53 52 52 52 52 52 51 51 51 52 53 51 48 47 48 49 49 49 48 48 46 47 48 50 51 50 50 50 50 49 47 45 44 44 44 43 41 45 45 53 49 50 44 46 46 47 47 47 42 43 48 42 44 42 41 49 42 44 45 46 48 43 49 48 53 50 50 53 50 51 53 53 52 51 49 48 48 48 48 48 48 49 49 48 47
53 52 52 52 52 52 52 52 51 51 52 54 53 52 50 49 49 49 47 48 47 46 48 46 49 50 50 49 50 49 48 48 47 46 43 42 41 43 43 46 44 49 48 45 47 46 47 45 41 42 45 47 46 48 49 45 45 47 45 47 48 44 42 49 49 47 46 45 46 52 44 45 50 51 51 50 49 48 49 48 47 48 49 48 46 47 47
52 51 51 51 51 51 51 50 51 53 54 54 53 51 51 49 48 48 48 47 46 45 45 47 47 48 50 49 49 49 49 49 46 44 42 40 40 40 41 41 45 44 48 45 43 45 46 40 40 46 42 46 42 43 49 48 46 44 44 43 46 44 45 48 46 45 45 49 52 51 49 49 50 51 52 50 49 48 47 47 48 49 49 47 46 47 49
52 53 53 52 52 52 52 53 52 52 53 52 50 49 48 49 49 49 48 48 48 47 47 47 49 49 46 44 50 48 45 43 42 40 39 41 40 39 39 40 43 45 45 45 46 47 42 43 48 42 43 47 43 43 41 38 39 38 43 48 48 50 51 47 48 49 51 52 53 56 53 50 52 52 51 50 50 48 48 49 49 48 47 45 45 48 49
51 51 51 52 52 52 52 52 52 51 52 50 48 46 45 50 49 49 49 47 52 52 47 47 46 48 50 50 48 46 46 46 45 43 41 39 38 38 37 39 41 44 43 44 45 41 46 43 44 42 46 47 43 46 36 40 37 40 49 54 53 52 52 49 52 48 48 53 55 57 56 53 52 51 50 51 51 49 48 48 48 48 47 48 49 50 49
51 50 50 51 51 51 51 51 51 52 52 48 45 43 43 46 49 49 50 48 48 50 51 50 48 50 49 50 49 48 48 49 46 43 41 40 38 36 36 41 46 44 41 43 41 44 44 39 41 43 45 47 47 42 41 37 37 43 52 55 56 53 53 53 55 54 54 56 57 58 57 54 53 51 50 51 49 50 50 51 55 55 50 52 50 49 49
50 50 50 50 50 51 51 51 51 51 50 48 45 43 45 47 49 49 50 50 47 50 50 48 47 47 47 48 49 48 45 43 44 43 42 43 39 38 41 37 43 42 47 44 46 45 41 46 41 44 38 49 49 44 42 40 38 42 52 53 53 55 56 55 54 54 56 56 53 52 51 52 50 47 48 51 49 49 50 52 54 56 60 52 52 50 49
50 49 49 50 50 50 51 51 51 50 48 49 51 51 51 51 52 51 51 48 46 46 50 49 46 46 45 47 47 45 44 44 40 42 44 43 40 39 37 40 40 41 56 47 41 39 45 41 45 37 42 49 44 46 42 40 40 47 53 53 51 52 54 56 56 56 55 53 51 50 50 50 50 50 51 52 52 52 54 54 55 52 50 50 50 51 50
49 49 49 50 50 50 50 50 51 51 51 48 44 43 45 50 50 52 49 46 43 47 51 48 46 44 45 47 44 45 46 43 43 45 38 46 46 35 42 43 48 41 43 39 47 41 43 44 42 43 47 47 49 43 39 43 46 51 53 52 53 53 55 52 52 54 56 56 57 51 51 52 52 52 52 51 50 51 51 50 49 49 49 49 49 50 51
50 50 49 49 49 49 50 50 49 47 44 45 44 44 44 49 51 52 47 43 47 48 47 48 47 43 41 42 42 42 45 42 45 47 39 44 47 41 48 43 40 37 44 43 44 40 44 43 45 39 38 49 42 39 42 43 48 51 52 52 54 51 48 47 47 52 56 57 56 55 54 52 51 50 50 50 50 50 49 49 50 50 49 48 49 50 51
50 49 49 50 50 50 49 49 48 45 43 43 43 46 55 56 56 50 44 48 52 48 46 46 46 43 41 39 41 46 47 44 48 49 43 47 45 50 46 48 44 51 54 46 41 47 43 51 43 37 44 37 41 43 46 46 50 50 50 51 51 49 49 49 49 50 54 56 55 54 53 52 50 51 52 51 51 51 52 52 52 51 50 51 52 53 53
49 49 50 50 48 48 45 45 47 46 43 45 46 54 54 55 49 50 49 51 53 51 46 45 43 44 46 46 45 47 45 43 47 44 47 45 45 54 50 50 46 55 47 46 46 44 47 58 46 44 40 37 44 53 56 56 50 51 51 51 53 56 57 56 56 53 52 53 53 53 52 52 52 52 52 52 53 52 52 51 51 51 53 53 54 53 53
49 50 47 45 44 42 42 44 45 46 51 50 51 50 50 52 49 50 49 47 49 49 46 44 41 43 44 43 41 47 43 45 47 44 47 52 48 49 52 51 48 49 42 44 46 53 53 49 45 42 44 48 53 57 58 57 55 54 55 55 54 56 58 55 55 51 50 50 51 52 51 50 51 52 52 52 53 53 54 54 54 53 53 53 53 54 56
49 47 45 45 43 41 46 51 52 54 52 52 50 49 47 48 47 46 47 48 47 44 46 42 41 43 42 41 41 44 43 43 41 46 41 50 47 45 50 46 48 47 43 41 45 50 41 44 45 43 41 48 51 51 57 60 58 57 56 55 53 57 57 55 54 50 49 50 51 52 51 50 51 53 54 54 54 54 54 53 54 54 54 54 54 55 56
47 44 43 42 41 42 48 49 51 50 51 46 46 46 45 45 44 41 48 44 42 46 45 42 44 43 42 40 40 40 45 42 42 43 47 49 51 44 48 47 46 43 41 40 43 51 42 40 42 41 39 49 51 54 58 59 58 58 57 57 58 58 56 54 56 56 51 53 54 54 53 52 54 53 53 54 54 53 54 55 55 54 53 56 58 57 56
47 45 44 43 45 45 45 46 48 50 46 44 45 46 44 40 43 43 43 42 40 42 45 44 44 42 43 42 42 39 43 46 47 48 47 45 55 49 45 44 49 43 42 39 48 50 45 44 42 40 41 48 52 55 59 60 59 59 58 57 58 59 59 59 59 58 57 57 56 54 55 55 53 53 54 53 54 54 55 54 54 54 56 58 58 57 58
48 48 47 47 47 47 46 47 46 46 44 44 42 38 39 43 42 39 40 39 40 42 43 42 42 42 42 42 42 41 43 45 46 45 44 44 51 47 48 48 46 42 39 44 50 47 44 41 41 41 45 51 56 58 58 57 58 59 58 59 59 59 59 57 56 57 55 54 54 56 55 54 54 54 55 54 55 55 55 53 53 53 52 54 57 58 59
50 50 50 47 45 46 46 41 45 45 36 38 39 35 38 36 39 36 37 38 41 41 45 44 44 45 45 43 44 43 43 47 42 47 42 44 51 49 47 45 43 40 43 49 46 43 40 40 40 42 47 51 56 58 57 58 58 59 58 58 58 60 58 56 58 58 57 57 56 56 56 56 56 56 55 54 53 53 56 59 57 56 56 57 58 58 59
47 47 46 46 44 45 44 33 44 43 39 38 35 32 36 34 38 39 39 37 39 38 43 41 42 41 40 43 43 44 41 44 50 50 45 48 47 44 42 41 43 46 48 44 43 40 42 42 42 44 47 53 59 58 59 59 59 57 58 60 60 60 58 58 57 56 57 57 56 56 56 55 54 55 55 54 54 55 55 55 58 57 58 56 55 55 57
43 42 42 42 38 44 39 32 41 38 34 38 38 38 35 32 37 39 38 42 37 40 44 44 46 42 43 46 44 46 42 44 50 43 44 44 43 43 42 42 45 45 42 41 41 41 41 41 44 50 55 56 59 60 59 57 58 56 58 58 58 58 57 56 55 55 55 55 55 55 55 54 53 53 53 54 54 54 55 55 57 55 55 56 57 58 59
42 38 38 35 34 36 33 32 34 33 37 40 40 40 39 37 39 40 42 47 48 48 46 46 47 44 43 46 41 43 40 47 40 42 44 42 40 39 43 48 46 43 42 39 39 38 40 43 44 44 54 58 59 60 59 59 60 58 56 56 57 58 57 56 55 55 55 55 55 55 54 52 52 53 54 55 55 54 53 54 55 55 54 54 55 56 58
43 44 41 39 35 36 40 34 35 36 38 39 39 41 40 40 41 40 54 56 49 49 50 54 54 51 47 49 46 46 50 46 42 44 43 41 38 43 48 44 41 40 38 38 38 39 41 44 51 53 56 59 60 60 60 59 59 58 57 57 57 57 58 57 56 55 55 56 56 55 55 54 55 55 56 54 54 55 58 57 57 55 54 54 56 58 59
37 43 42 35 32 35 35 37 39 40 40 40 39 40 40 42 42 40 47 53 54 53 53 52 50 50 49 54 51 48 49 50 43 43 43 43 41 43 42 41 41 42 41 39 40 43 45 51 55 57 59 61 61 60 59 59 58 58 57 57 57 57 57 57 57 57 56 56 55 55 55 55 56 56 55 54 54 55 57 56 56 57 56 56 56 56 55
45 41 35 36 40 38 36 39 37 35 35 36 39 40 44 45 44 45 53 54 55 53 54 52 52 50 47 50 49 47 44 50 40 41 41 40 38 37 39 38 38 37 41 42 43 47 51 54 56 58 60 60 59 59 59 58 59 58 57 57 57 57 58 58 57 58 58 59 57 56 56 57 58 57 56 56 54 55 57 56 56 56 56 55 55 56 57
40 37 41 39 39 39 41 42 41 38 40 41 42 43 45 45 44 47 54 54 54 54 53 52 52 48 49 49 41 45 46 47 46 43 40 38 38 37 37 37 38 40 44 48 50 52 54 56 57 58 58 59 59 58 58 58 60 58 58 58 58 58 57 57 56 57 58 59 58 57 58 57 55 56 56 55 55 57 57 56 56 56 57 57 57 56 57
43 43 40 41 39 39 39 38 39 38 39 40 41 42 43 43 45 48 54 55 54 53 52 48 46 45 41 44 44 37 43 48 43 42 40 40 41 37 37 39 44 46 49 51 53 55 56 57 57 57 57 58 59 59 58 59 59 58 59 59 58 58 57 57 57 58 60 61 61 63 56 55 55 55 57 58 57 56 56 57 56 54 54 57 58 57 56
37 35 37 40 41 40 39 39 40 40 40 41 42 44 44 43 47 49 56 55 54 50 47 50 47 40 40 38 44 46 50 43 43 42 40 43 47 44 45 46 47 49 51 51 51 53 57 58 58 59 59 60 59 59 59 59 59 59 59 59 59 58 58 58 58 59 60 60 60 59 56 56 59 59 59 57 56 55 53 53 57 59 57 55 56 57 57